Zurück zum Katalog

ARIANE 5 R/B

AktivHEO
NORAD 45029·ROCKET BODY·🇫🇷 France

Gestartet Jan 16, 2020 von Guiana Space Centre

Loading…

Nächste Überflüge (nächste 24 Stunden)

TLE

AktuellSource: Space-Track

Epoche: Sep 14, 2026, 07:36 UTC

1 45029U 20005D   26257.31701128  .00010057  00000-0  61972-3 0  9993
2 45029   5.8447  35.2687 6411813 224.4450  61.4400  3.48693419 54018

Verfolge ARIANE 5 R/B in Echtzeit mit AllMySat

Download on the App Store